Vorticity
10 12 7 8 7 14 12 11 4 57 18 9 13 27 32 15 8 -4 35 24 -40 11 15 26 -21 5 35 1 -2 6 6 6 4 7 5 5 6 4 4 6 3 2 2
7 8 11 8 7 6 16 15 15 -1 56 16 10 19 30 31 8 6 -20 -8 20 -17 2 38 4 37 22 2 2 6 6 4 5 8 6 5 4 3 4 6 2 1 2
10 11 11 11 11 14 16 18 18 14 -8 41 11 10 38 28 19 5 7 -7 14 21 31 15 -29 -18 -13 3 -1 3 9 5 5 5 9 7 6 6 6 6 4 1 2
8 9 12 18 18 8 6 5 7 11 16 21 20 5 30 33 30 11 6 12 -6 -9 58 4 38 36 -18 16 6 3 7 6 5 6 9 5 3 2 4 5 4 2 2
12 16 14 7 5 6 10 10 8 5 7 24 58 8 -3 41 30 16 6 -1 11 -32 -6 24 -3 25 -6 23 5 -7 10 5 6 5 11 7 5 6 4 3 3 2 2
9 12 17 21 11 9 11 12 20 18 10 8 10 60 6 14 38 27 13 14 4 16 -36 16 32 -7 20 5 9 5 4 7 6 5 5 5 6 4 3 2 5 1 -0
11 13 14 19 18 8 10 0 13 8 12 7 17 6 56 2 41 24 19 4 4 19 -7 -5 43 36 1 -1 -5 19 3 5 5 5 5 6 4 6 4 1 4 3 3
6 9 15 15 16 17 12 9 -1 14 5 18 9 13 7 57 20 24 29 14 5 -3 -14 -39 -17 44 1 4 18 13 -0 5 6 3 6 4 6 5 4 4 3 2 2
5 17 19 16 2 1 8 6 24 18 33 2 12 13 7 12 29 35 25 15 16 -7 -7 -18 -26 -30 38 6 -1 6 9 2 6 5 6 5 4 4 3 3 4 1 4
10 8 10 1 8 2 9 8 12 14 4 42 4 8 12 19 47 33 24 22 13 11 1 19 43 -9 48 21 13 12 3 1 5 4 7 4 6 4 2 3 3 2 6
14 9 11 10 9 14 19 26 43 11 19 36 29 2 9 9 12 34 27 22 13 13 -11 1 5 7 18 6 18 8 5 5 1 4 5 7 5 6 4 3 4 5 6
11 6 16 21 30 39 55 42 42 7 27 20 42 5 19 8 22 31 31 28 15 12 9 -34 -12 9 5 -16 28 16 4 11 1 3 6 7 5 4 6 5 7 7 4
8 12 4 12 40 9 30 35 32 35 25 18 22 19 13 17 27 20 31 36 24 13 -6 -12 -30 15 8 9 -30 18 8 8 1 2 7 6 8 7 6 4 4 5 4
-1 8 11 10 27 22 15 44 30 37 40 41 39 31 26 22 22 19 26 41 24 11 6 -10 -71 22 8 -3 37 29 9 6 2 5 4 8 6 8 6 5 6 5 4
10 11 3 24 15 23 22 34 29 22 30 30 33 47 32 16 23 16 27 41 23 14 9 1 11 2 8 3 24 3 6 10 -1 8 6 9 5 6 7 6 7 5 7
2 25 -0 22 13 26 23 57 20 18 26 35 36 41 21 27 24 17 18 40 21 12 22 20 9 -23 -8 1 -4 16 6 6 -12 25 7 7 6 5 6 7 7 7 5
-0 24 27 21 11 -19 41 49 25 18 18 27 42 25 20 25 24 22 13 35 26 16 13 4 -3 -10 2 16 17 23 15 7 1 11 4 7 6 5 5 6 6 7 9
4 12 27 13 20 10 26 47 28 27 23 41 66 8 18 23 38 27 14 29 31 19 9 5 9 4 -29 -8 21 4 11 15 8 3 15 11 6 5 6 6 6 8 10
11 14 17 2 18 32 25 43 30 17 35 41 68 16 15 15 11 21 24 28 38 19 6 8 6 -17 -5 5 29 2 -7 8 12 3 3 21 11 4 6 5 5 8 7
7 13 22 5 13 29 35 39 40 19 26 29 60 24 13 7 3 28 22 36 36 22 8 11 1 19 -8 -19 26 18 9 8 10 13 -16 -6 26 7 5 7 4 6 6
13 -2 28 1 9 32 27 38 59 30 20 21 49 21 7 8 7 26 21 40 35 23 9 9 4 13 -27 -46 10 -6 14 14 8 17 -15 -2 7 6 5 7 6 5 4
27 -1 31 6 6 21 23 40 43 35 13 35 35 24 10 3 45 30 21 30 32 25 10 5 8 11 9 -19 -24 19 22 -4 9 -1 5 6 -3 5 3 7 8 7 4
39 -0 14 6 6 18 33 28 22 2 41 10 27 11 17 32 19 18 35 21 29 28 12 11 14 10 -12 2 15 28 15 10 -4 9 32 -6 -5 -16 10 8 6 7 8
22 15 -1 32 -6 4 30 39 18 35 48 30 25 13 -8 26 15 24 28 24 24 26 17 8 9 11 21 15 -7 8 41 17 15 -9 5 9 25 -3 10 9 5 5 5
19 31 3 0 37 14 14 30 49 7 22 49 20 19 22 19 27 24 22 27 27 29 20 17 19 7 22 -9 -17 -0 3 18 10 7 10 17 -3 5 11 2 5 5 6
17 34 -5 2 9 11 28 11 37 40 31 15 37 35 27 38 28 17 25 32 12 26 15 14 10 13 12 -80 11 -1 10 38 1 13 -2 -0 4 7 10 8 5 7 6
Height
5591 5589 5587 5584 5580 5576 5573 5571 5569 5569 5571 5574 5579 5587 5600 5615 5631 5649 5663 5678 5692 5706 5713 5724 5737 5743 5752 5760 5768 5779 5787 5795 5799 5805 5812 5818 5824 5830 5836 5841 5846 5851 5854
5588 5584 5581 5577 5572 5568 5565 5563 5562 5561 5562 5564 5568 5574 5585 5598 5615 5631 5648 5665 5682 5693 5702 5709 5722 5732 5742 5750 5761 5772 5780 5785 5792 5801 5807 5813 5820 5825 5832 5837 5843 5848 5852
5581 5577 5572 5567 5563 5560 5557 5554 5552 5553 5553 5553 5557 5562 5570 5582 5598 5614 5633 5649 5665 5681 5694 5701 5709 5722 5730 5741 5755 5765 5773 5779 5785 5797 5806 5810 5816 5823 5830 5835 5840 5844 5848
5574 5569 5564 5559 5555 5551 5547 5545 5543 5542 5543 5543 5545 5550 5557 5567 5580 5596 5617 5632 5646 5662 5678 5690 5697 5706 5719 5730 5745 5757 5766 5772 5783 5791 5799 5804 5808 5818 5826 5832 5836 5840 5845
5565 5559 5552 5547 5543 5539 5537 5534 5531 5530 5530 5532 5532 5536 5545 5553 5563 5578 5598 5615 5634 5647 5666 5677 5688 5700 5708 5722 5735 5748 5756 5766 5775 5787 5795 5799 5804 5813 5822 5825 5830 5836 5841
5556 5549 5543 5537 5533 5529 5524 5521 5518 5516 5516 5518 5521 5522 5529 5538 5548 5560 5580 5596 5616 5634 5652 5666 5671 5684 5697 5714 5725 5735 5751 5759 5768 5779 5785 5792 5801 5807 5815 5822 5828 5830 5835
5545 5539 5533 5527 5521 5516 5511 5507 5504 5501 5500 5501 5505 5508 5512 5521 5533 5543 5562 5580 5600 5620 5641 5654 5661 5673 5686 5701 5713 5725 5740 5750 5759 5772 5781 5786 5792 5801 5809 5814 5818 5825 5831
5537 5529 5521 5513 5507 5501 5495 5489 5487 5486 5483 5482 5485 5490 5497 5503 5515 5528 5543 5565 5583 5602 5621 5637 5653 5661 5673 5689 5703 5716 5730 5741 5752 5763 5773 5779 5788 5797 5803 5810 5816 5822 5827
5525 5516 5509 5501 5492 5484 5476 5470 5466 5462 5462 5462 5464 5469 5477 5486 5497 5510 5525 5548 5566 5585 5604 5623 5640 5653 5660 5678 5692 5706 5718 5730 5743 5755 5764 5773 5780 5791 5796 5805 5811 5817 5822
5514 5503 5492 5481 5472 5460 5451 5443 5439 5437 5435 5437 5441 5447 5455 5467 5477 5492 5508 5532 5551 5566 5593 5614 5627 5641 5655 5669 5684 5698 5710 5721 5734 5746 5753 5765 5775 5783 5792 5799 5806 5812 5817
5500 5488 5476 5463 5450 5437 5422 5411 5407 5408 5407 5407 5413 5423 5433 5447 5458 5473 5491 5512 5535 5553 5578 5600 5614 5628 5643 5660 5674 5689 5702 5714 5725 5736 5747 5758 5768 5776 5786 5794 5801 5807 5811
5487 5475 5460 5443 5426 5411 5397 5387 5382 5380 5379 5381 5387 5400 5409 5424 5440 5454 5472 5492 5518 5538 5562 5580 5598 5617 5631 5649 5665 5679 5692 5706 5717 5728 5741 5751 5760 5768 5780 5788 5795 5800 5806
5476 5460 5442 5425 5407 5391 5379 5365 5357 5351 5350 5355 5363 5375 5387 5401 5419 5435 5452 5475 5502 5523 5549 5565 5591 5608 5622 5640 5656 5671 5684 5700 5710 5722 5736 5747 5755 5763 5775 5782 5789 5794 5799
5463 5446 5428 5407 5389 5372 5356 5342 5331 5327 5326 5329 5336 5348 5362 5378 5398 5416 5435 5458 5486 5509 5534 5557 5580 5598 5613 5633 5648 5661 5675 5690 5703 5716 5729 5740 5750 5759 5767 5774 5781 5787 5793
5454 5435 5416 5395 5373 5356 5340 5323 5316 5313 5310 5310 5315 5325 5340 5358 5379 5399 5418 5443 5470 5496 5517 5544 5569 5588 5605 5625 5641 5654 5668 5682 5696 5709 5722 5732 5741 5750 5758 5766 5774 5780 5786
5447 5427 5404 5382 5363 5345 5327 5312 5304 5299 5296 5296 5302 5311 5324 5344 5365 5385 5404 5428 5456 5481 5506 5536 5562 5580 5599 5620 5635 5650 5664 5676 5692 5701 5716 5724 5732 5741 5751 5759 5766 5773 5779
5433 5415 5392 5372 5354 5336 5316 5303 5296 5290 5287 5287 5291 5303 5318 5336 5355 5374 5393 5416 5447 5470 5500 5531 5553 5578 5597 5610 5628 5644 5658 5671 5685 5695 5707 5717 5726 5733 5744 5753 5759 5766 5773
5424 5408 5385 5366 5346 5327 5308 5295 5287 5282 5278 5277 5283 5299 5316 5332 5349 5368 5387 5408 5434 5466 5497 5525 5550 5569 5588 5603 5622 5637 5653 5664 5676 5688 5700 5710 5720 5728 5738 5746 5752 5759 5767
5415 5399 5377 5360 5340 5320 5304 5290 5283 5277 5273 5272 5280 5298 5317 5333 5349 5367 5385 5405 5429 5457 5492 5520 5542 5565 5582 5598 5616 5631 5645 5658 5669 5680 5692 5703 5712 5722 5730 5737 5745 5752 5758
5416 5402 5381 5360 5340 5320 5301 5289 5281 5277 5275 5278 5285 5302 5320 5336 5351 5366 5382 5402 5427 5455 5486 5512 5540 5560 5576 5592 5609 5625 5639 5650 5661 5673 5685 5695 5705 5714 5722 5732 5738 5745 5752
5418 5405 5382 5363 5344 5326 5308 5291 5284 5283 5283 5287 5294 5309 5325 5339 5352 5366 5380 5400 5422 5448 5480 5505 5532 5553 5570 5586 5602 5618 5633 5645 5655 5667 5678 5688 5698 5707 5716 5724 5731 5739 5740
5429 5411 5391 5371 5350 5332 5316 5303 5297 5296 5296 5298 5305 5318 5330 5342 5351 5366 5381 5396 5417 5445 5476 5501 5526 5547 5564 5580 5597 5614 5629 5641 5651 5661 5673 5684 5691 5701 5709 5718 5724 5729 5731
5428 5410 5396 5379 5359 5343 5329 5318 5314 5311 5310 5312 5318 5325 5335 5344 5354 5367 5382 5398 5417 5443 5470 5496 5522 5544 5563 5577 5594 5610 5621 5633 5644 5652 5664 5677 5684 5692 5701 5708 5715 5719 5723
5437 5418 5405 5391 5371 5355 5342 5331 5323 5319 5317 5319 5326 5334 5341 5350 5359 5370 5385 5402 5422 5446 5473 5498 5520 5542 5559 5573 5589 5602 5615 5626 5634 5643 5654 5665 5673 5682 5690 5697 5704 5709 5715
5442 5427 5413 5400 5383 5366 5351 5341 5333 5329 5327 5327 5332 5338 5345 5352 5361 5374 5393 5410 5430 5453 5477 5498 5521 5542 5559 5575 5592 5606 5614 5621 5629 5638 5644 5653 5661 5668 5678 5688 5695 5702 5708
5450 5436 5424 5410 5397 5381 5367 5354 5344 5338 5337 5338 5338 5341 5348 5357 5367 5382 5397 5410 5432 5454 5478 5500 5522 5542 5559 5571 5584 5594 5602 5611 5621 5627 5637 5647 5656 5664 5672 5682 5690 5695 5701